Regional Weather Roundup
Issued by NWS

Home | Current Version | Previous Version | Text Only | Print | Product List | Glossary On
Versions: 1 2 3 4 5 6 7 8 9 10 11 12 13 14 15 16 17 18 19 20 21 22 23 24 25 26 27 28 29 30 31 32 33 34 35 36 37 38 39 40 41 42 43 44 45 46 47 48 49 50
000
ASMX46 KSGX 311210
RWRMX

MEXICAN WEATHER ROUNDUP
NATIONAL WEATHER SERVICE SAN DIEGO CA
500 AM PDT THU JUL 31 2014

BAJA CALIFORNIA

CITY           SKY/WX    TMP DP  RH WIND       PRES   REMARKS
ENSENADA NW      N/A     69  32  25 SE3       29.90R
TIJUANA        FOG       68  64  88 CALM      29.95F VSB 1

NORTHWESTERN MEXICO

CITY           SKY/WX    TMP DP  RH WIND       PRES   REMARKS
HERMOSILLO     CLOUDY    84  68  58 NE7       29.91F

NORTHEASTERN MEXICO

CITY           SKY/WX    TMP DP  RH WIND       PRES   REMARKS
MATAMOROS      PTCLDY    79  79 100 CALM      29.95  FOG
MONTERREY      CLEAR     73  66  78 CALM      29.92S
NUEVO LAREDO   CLEAR     81  73  78 SE9       29.89
REYNOSA        PTCLDY    77  72  83 SE14      29.90
SALTILLO       CLEAR     73  55  53 SE9       30.16S
TORREON        CLEAR     75  50  41 E3        30.06R
VICTORIA       CLEAR     77  70  78 S14       29.93

WESTERN MEXICO

CITY           SKY/WX    TMP DP  RH WIND       PRES   REMARKS
AGUASCALIENTES CLEAR     57  55  94 E5        30.30
COLIMA         PTCLDY    73  66  78 CALM      30.06S
DURANGO        PTCLDY    59  54  82 CALM      30.27S
GUADALAJARA    CLEAR     64  61  88 CALM      30.21
MAZATLAN       CLOUDY    79  72  78 NE7       29.89R
PTO. VALLARTA  CLOUDY    81  73  78 N5        29.92S
URUAPAN        CLOUDY    63  63 100 CALM      30.22
ZACATECAS      PTCLDY    52  43  71 CALM      30.33S

CENTRAL MEXICO

CITY           SKY/WX    TMP DP  RH WIND       PRES   REMARKS
CUERNAVACA       N/A    N/A N/A N/A MISG        N/A
LEON           MOCLDY    63  61  94 CALM      30.31S
MEXICO CITY    PTCLDY    57  52  82 NE6       30.38R
MORELIA        MOCLDY    59  57  94 CALM      30.28
POZA RICA      PTCLDY    75  73  94 CALM      29.98  FOG
PUEBLA         PTCLDY    46  45  93 NW7       30.39R
QUERETARO      PTCLDY    57  48  72 CALM      30.34S
S. LUIS POTOSI CLEAR     54  52  94 NW5       30.28F
TAMPICO        MOCLDY    79  75  89 CALM      29.95R
TOLUCA         FOG       52  48  87 CALM      30.44R VSB 1/2
VERACRUZ       PTCLDY    75  73  94 NW3       29.95R

SOUTHERN MEXICO

CITY           SKY/WX    TMP DP  RH WIND       PRES   REMARKS
ACAPULCO       PTCLDY    81  77  89 NE3       29.88R
B. DE HUATULCO CLEAR     73  68  83 NW8       29.91
MINATITLAN     CLOUDY    82  68  61 CALM      29.92
OAXACA         CLEAR     55  52  88 N6        30.26S
PTO. ESCONDIDO PTCLDY    73  68  83 E18       30.00
TAPACHULA      MOCLDY    75  70  83 CALM      29.88S
TUX. GUTIERREZ MOCLDY    68  66  94 CALM      30.00R FOG
VILLAHERMOSA   MOCLDY    77  72  83 E8        29.95R
ZIHUATANEJO      N/A    N/A N/A N/A MISG        N/A

YUCATAN PENINSULA

CITY           SKY/WX    TMP DP  RH WIND       PRES   REMARKS
CAMPECHE       PTCLDY    75  73  94 E7        29.95R
CANCUN         PTCLDY    73  72  94 N3        29.98S
CHETUMAL       PTCLDY    77  72  83 CALM      29.96
C. DEL CARMEN  PTCLDY    81  75  83 CALM      29.94
COZUMEL        PTCLDY    70  70 100 CALM      29.98R
MERIDA         CLEAR     75  73  94 E5        29.97S

$$




USA.gov is the U.S. government's official web portal to all federal, state and local government web resources and services.